Vorticity
6 5 5 7 6 5 5 6 4 4 5 5 5 6 6 6 5 5 4 5 5 7 8 10 8 4 4 6 4 2 2 1 1 2 3 3 4 6 6 7 7 8 7
8 5 6 7 7 6 5 5 5 4 4 5 4 5 4 5 5 5 7 7 10 9 7 5 3 4 5 3 2 2 1 1 2 3 3 5 5 7 6 5 4 4 5
4 11 5 7 8 6 6 6 6 4 4 4 5 4 4 5 5 6 7 8 8 4 5 5 5 5 3 3 2 1 1 2 3 3 5 5 6 5 5 2 3 4 5
5 6 9 5 8 7 7 7 6 6 4 5 5 4 4 6 6 6 7 8 5 3 5 4 4 4 2 2 1 1 2 3 3 4 6 6 7 5 4 6 7 8 7
2 7 7 11 7 8 6 6 6 4 5 4 4 4 4 4 6 7 7 9 4 3 5 4 4 3 3 2 1 2 2 3 3 5 5 6 7 8 7 5 4 4 3
-0 3 8 6 14 9 9 9 6 5 4 4 4 4 3 3 4 6 8 9 6 1 6 5 3 3 2 2 2 2 2 3 3 4 5 5 5 5 3 3 4 3 3
2 -0 -2 4 9 7 13 9 11 10 6 4 2 3 4 4 3 4 7 8 9 3 2 6 3 4 2 1 2 3 3 3 2 3 3 4 5 5 5 4 2 3 2
5 5 0 -0 1 7 7 8 11 10 12 10 6 3 3 4 4 4 5 7 8 7 2 2 5 2 2 3 2 2 3 2 3 2 3 3 4 4 3 2 1 2 2
3 1 3 -1 -2 2 2 6 6 6 10 10 12 11 8 5 5 5 4 5 7 8 5 2 3 4 4 3 3 2 3 3 2 2 2 2 2 3 3 1 1 2 3
5 7 6 2 -1 -3 1 1 2 6 6 5 8 9 10 9 8 5 6 5 5 7 7 4 2 2 3 3 3 3 2 2 2 2 3 2 2 2 2 2 2 2 1
3 -3 -1 -2 4 7 -1 -0 1 1 3 5 6 7 7 11 10 8 7 6 6 6 7 6 4 2 2 2 2 2 2 1 1 2 3 3 2 2 2 2 2 2 2
3 3 2 3 4 1 7 4 0 0 0 1 3 3 6 7 8 11 10 9 9 8 9 8 6 4 4 3 2 2 1 -0 -1 1 3 3 2 3 3 3 3 2 3
5 -4 3 0 1 5 2 5 8 3 1 0 1 1 5 2 3 5 7 11 11 9 10 8 9 9 7 4 2 1 1 1 1 2 3 0 2 2 2 4 4 4 4
4 0 6 0 2 -0 5 7 5 3 7 5 2 1 1 2 2 2 1 2 6 10 12 9 10 9 7 7 9 9 7 6 5 5 5 4 4 4 4 4 5 4 4
5 -1 1 4 -5 -3 -0 -1 1 -0 5 10 8 2 1 2 1 1 1 3 2 2 4 7 11 12 9 9 9 8 6 5 5 5 6 6 6 6 5 5 5 6 6
3 0 1 -2 -1 -3 0 6 8 1 3 3 3 3 13 5 2 2 3 1 -0 2 3 3 3 4 6 10 12 9 7 6 6 6 6 6 7 7 7 8 7 6 6
6 9 2 -6 4 4 5 4 6 5 6 5 2 3 5 5 4 5 1 2 2 3 0 0 2 3 3 4 5 7 8 10 10 8 5 5 5 6 7 6 6 5 5
-2 7 5 6 7 7 9 5 7 8 6 5 6 5 3 2 2 4 6 4 5 2 1 3 -1 1 1 2 3 5 5 6 6 6 7 9 10 8 7 6 4 5 5
12 14 8 5 8 6 6 7 6 5 5 5 4 5 5 3 1 2 4 4 5 3 4 4 2 3 -0 -1 -1 0 2 6 7 6 5 5 5 7 8 9 8 7 6
2 1 4 5 5 7 8 8 9 9 8 7 6 6 5 4 2 3 4 1 0 1 4 3 4 5 4 2 2 0 -0 -1 0 4 5 6 5 4 4 4 6 7 8
7 3 7 -0 8 11 13 10 5 6 9 11 11 10 10 8 5 5 4 4 4 5 2 0 1 2 5 5 3 3 3 1 -1 -1 1 2 2 3 3 5 5 5 5
6 16 19 16 6 3 5 6 10 11 10 10 8 6 7 10 12 13 9 5 4 4 2 4 4 1 -1 -1 4 6 4 3 3 3 0 0 1 1 1 2 2 4 5
8 3 3 4 13 14 14 12 11 10 10 9 9 9 8 8 6 6 8 12 15 15 8 1 3 3 2 3 -0 4 4 10 4 25 4 3 2 2 -1 -1 0 1 2
6 11 16 15 12 10 11 11 11 10 10 11 10 10 10 11 10 8 6 6 5 5 6 11 15 5 1 5 2 4 7 -33 -1 -3 7 2 4 -2 11 -10 -1 1 2
14 11 11 13 9 9 9 11 11 12 10 10 10 9 9 10 13 14 14 12 11 7 5 5 5 5 12 10 1 7 2 -11 36 -17 4 1 15 -34 -28 91 53 -2 11
18 12 6 12 11 10 14 17 20 19 22 25 28 30 31 31 29 31 26 34 44 40 40 20 14 6 3 5 7 8 5 6 3 2 2 6 1 29 18 15 29 50 23
Height
5867 5866 5865 5866 5865 5865 5865 5865 5864 5863 5861 5861 5861 5860 5860 5861 5862 5861 5860 5860 5860 5860 5861 5862 5864 5865 5865 5866 5868 5869 5870 5871 5872 5872 5873 5873 5873 5872 5872 5872 5872 5872 5872
5868 5867 5866 5865 5865 5865 5866 5865 5865 5863 5862 5862 5862 5861 5862 5863 5864 5864 5863 5862 5862 5862 5863 5864 5865 5867 5868 5869 5870 5872 5873 5873 5874 5874 5875 5875 5874 5874 5874 5874 5874 5874 5873
5869 5868 5867 5866 5866 5865 5866 5866 5865 5864 5863 5863 5863 5863 5863 5864 5865 5865 5866 5865 5865 5865 5866 5867 5868 5869 5870 5871 5872 5874 5874 5875 5875 5876 5876 5876 5876 5876 5876 5875 5875 5875 5875
5871 5870 5869 5868 5867 5866 5866 5866 5865 5864 5864 5864 5864 5864 5864 5865 5865 5866 5868 5868 5868 5868 5868 5869 5870 5871 5871 5872 5873 5875 5875 5876 5876 5877 5877 5877 5877 5877 5876 5876 5876 5875 5875
5872 5872 5871 5870 5869 5868 5867 5866 5865 5865 5864 5864 5864 5865 5865 5865 5866 5867 5869 5870 5871 5871 5871 5871 5871 5872 5873 5874 5875 5876 5876 5876 5877 5877 5878 5878 5878 5878 5877 5876 5876 5876 5875
5873 5873 5872 5871 5870 5870 5869 5868 5866 5865 5865 5864 5865 5865 5865 5866 5866 5866 5868 5870 5871 5873 5873 5874 5874 5874 5875 5875 5876 5877 5877 5877 5877 5878 5878 5878 5878 5878 5878 5877 5877 5876 5875
5873 5873 5872 5872 5871 5870 5870 5870 5869 5867 5865 5864 5865 5865 5866 5866 5866 5866 5867 5868 5870 5872 5874 5875 5875 5876 5876 5876 5877 5877 5877 5878 5878 5878 5877 5877 5878 5878 5878 5878 5877 5877 5876
5872 5872 5872 5871 5871 5870 5870 5870 5869 5869 5869 5867 5865 5864 5866 5867 5867 5867 5867 5867 5869 5870 5872 5874 5875 5875 5876 5877 5877 5878 5878 5877 5877 5877 5877 5877 5877 5877 5877 5876 5876 5876 5876
5869 5870 5871 5871 5870 5870 5870 5870 5870 5869 5869 5869 5869 5867 5865 5865 5867 5867 5868 5868 5868 5869 5870 5871 5873 5874 5875 5876 5877 5877 5877 5877 5876 5876 5876 5876 5877 5877 5877 5876 5875 5875 5874
5868 5868 5869 5870 5871 5870 5869 5870 5870 5870 5870 5869 5870 5870 5869 5867 5866 5865 5866 5868 5867 5868 5868 5869 5870 5870 5871 5873 5874 5874 5875 5875 5875 5875 5875 5875 5875 5875 5875 5875 5874 5873 5872
5866 5867 5868 5869 5869 5870 5869 5869 5869 5869 5869 5869 5869 5869 5869 5869 5868 5867 5865 5865 5866 5867 5866 5866 5867 5868 5868 5869 5869 5870 5871 5871 5871 5871 5871 5872 5872 5872 5872 5872 5871 5871 5870
5863 5864 5865 5867 5867 5867 5867 5868 5868 5868 5867 5867 5867 5867 5867 5867 5867 5867 5867 5866 5865 5864 5865 5865 5865 5865 5866 5867 5867 5867 5867 5867 5866 5866 5866 5867 5868 5868 5868 5868 5867 5867 5867
5859 5860 5862 5863 5864 5864 5865 5865 5865 5866 5866 5865 5865 5865 5865 5864 5864 5865 5865 5865 5865 5865 5864 5863 5862 5862 5863 5862 5863 5863 5863 5863 5862 5862 5861 5863 5862 5863 5863 5863 5862 5862 5862
5856 5857 5858 5859 5860 5861 5861 5862 5862 5862 5862 5863 5863 5862 5862 5862 5862 5861 5861 5862 5863 5863 5862 5862 5862 5861 5860 5859 5858 5858 5858 5859 5858 5858 5858 5859 5858 5858 5857 5857 5857 5856 5855
5851 5852 5854 5854 5855 5856 5857 5858 5858 5858 5858 5858 5857 5858 5857 5857 5858 5858 5858 5857 5858 5858 5858 5859 5859 5858 5858 5857 5856 5854 5853 5852 5852 5852 5853 5854 5853 5852 5852 5851 5851 5850 5850
5847 5848 5849 5850 5851 5851 5852 5853 5853 5854 5853 5852 5852 5850 5848 5850 5851 5852 5854 5854 5853 5852 5852 5853 5853 5853 5853 5853 5852 5851 5849 5848 5848 5846 5845 5845 5846 5846 5846 5845 5844 5843 5843
5842 5843 5844 5844 5844 5846 5846 5846 5847 5847 5847 5847 5846 5845 5845 5845 5845 5844 5846 5847 5847 5847 5846 5846 5846 5846 5846 5846 5846 5845 5844 5844 5843 5842 5841 5841 5840 5839 5838 5838 5838 5836 5836
5836 5837 5837 5837 5838 5838 5839 5838 5840 5840 5840 5840 5839 5839 5839 5839 5839 5839 5839 5839 5839 5839 5839 5839 5839 5839 5838 5838 5838 5837 5837 5837 5837 5836 5835 5835 5834 5833 5833 5831 5830 5828 5828
5827 5828 5829 5830 5831 5831 5832 5831 5832 5832 5832 5832 5832 5831 5831 5831 5830 5831 5831 5831 5831 5830 5831 5830 5830 5830 5830 5830 5829 5828 5828 5828 5828 5828 5828 5826 5826 5826 5825 5824 5823 5821 5820
5820 5821 5822 5823 5823 5824 5824 5824 5823 5824 5823 5823 5823 5823 5822 5822 5822 5821 5821 5821 5821 5820 5820 5820 5820 5819 5820 5819 5819 5819 5818 5818 5818 5818 5818 5818 5817 5817 5816 5815 5814 5814 5812
5812 5814 5814 5814 5814 5814 5814 5814 5814 5814 5813 5813 5813 5812 5812 5812 5812 5812 5811 5810 5810 5810 5809 5807 5807 5808 5810 5808 5806 5808 5808 5808 5809 5809 5808 5808 5807 5807 5807 5806 5804 5803 5803
5805 5806 5806 5806 5805 5804 5804 5804 5804 5804 5803 5803 5802 5802 5801 5801 5800 5801 5800 5799 5798 5798 5796 5795 5795 5794 5796 5796 5794 5793 5795 5796 5797 5797 5796 5796 5796 5795 5796 5796 5795 5794 5792
5797 5798 5798 5798 5798 5796 5795 5794 5794 5794 5793 5793 5793 5792 5790 5789 5788 5787 5787 5786 5785 5784 5783 5782 5781 5780 5781 5782 5784 5780 5778 5781 5781 5782 5781 5783 5783 5779 5782 5778 5778 5782 5781
5789 5790 5791 5790 5789 5788 5787 5786 5785 5784 5784 5782 5781 5779 5779 5778 5777 5775 5773 5771 5770 5769 5768 5766 5765 5766 5764 5764 5767 5768 5769 5755 5765 5767 5769 5766 5766 5766 5760 5764 5761 5763 5767
5782 5782 5782 5782 5781 5781 5779 5778 5776 5775 5773 5771 5770 5768 5766 5764 5763 5761 5759 5757 5754 5752 5750 5749 5748 5748 5747 5748 5747 5750 5749 5750 5743 5742 5747 5751 5749 5752 5740 5744 5742 5750 5748
5774 5775 5776 5776 5775 5774 5773 5771 5769 5767 5765 5763 5760 5758 5755 5753 5751 5748 5745 5742 5739 5736 5733 5731 5729 5728 5728 5729 5728 5729 5729 5728 5728 5727 5726 5728 5730 5735 5733 5733 5727 5727 5729